DW4338 Bergen NO current weather conditions

sailwx.info

Last reported at 2016-May-26 01:52 UTC.
Time now 2016-May-26 02:47 UTC

Location: N 60°31' E 004°54'.
View on Google Maps.

See reports from other nearby stations

  
Tides and Currents Weather Stations Pressure Air Temp Water Temp Dewpoint Dewpoint Depression Visibility Wind Speed Wind Dir Waves Ship Positions
date/time (UTC)wind fromknots sea level pressurealtimeterstation pressurevisibilityair tempwater tempwave heightnotes
2016-May-26 01:52
2016-May-26 01:37
2016-May-26 01:22
2016-May-26 01:07
2016-May-26 00:52
2016-May-26 00:37
2016-May-26 00:22
2016-May-26 00:06
2016-May-25 23:51
2016-May-25 23:36
2016-May-25 23:21
2016-May-25 23:06
2016-May-25 22:51
2016-May-25 22:36
2016-May-25 22:21
2016-May-25 22:06
2016-May-25 21:51
2016-May-25 21:36
2016-May-25 21:21
2016-May-25 21:06
2016-May-25 20:51
2016-May-25 20:35 046 1 gusting 10 14.4
2016-May-25 20:20 045 14.4
2016-May-25 20:05 038 15.0
2016-May-25 19:50 042 15.6
2016-May-25 19:35 041 16.7
2016-May-25 19:20 040 17.2
2016-May-25 19:05 011 0 gusting 8 17.8
2016-May-25 18:50 024 1 gusting 9 18.3
2016-May-25 18:35 048 18.3
2016-May-25 18:20 054 18.3
2016-May-25 18:05 351 2 gusting 10 18.9
2016-May-25 17:50 030 4 gusting 14 19.4
2016-May-25 17:35 020 3 gusting 18 19.4
2016-May-25 17:20 032 4 gusting 21 19.4
2016-May-25 17:05 045 6 gusting 16 20.0
2016-May-25 16:50 005 7 gusting 19 20.0
2016-May-25 16:35 355 1 gusting 13 19.4
2016-May-25 16:20 339 8 gusting 18 18.9
2016-May-25 16:07 332 6 gusting 19 18.3
2016-May-25 15:50 321 15 gusting 24 18.3
2016-May-25 15:35 315 6 gusting 21 18.9
2016-May-25 15:20 311 13 gusting 22 18.9
2016-May-25 15:05 350 15 gusting 28 18.9
2016-May-25 14:50 306 11 gusting 25 18.3
2016-May-25 14:35 320 14 gusting 26 18.3
2016-May-25 14:20 360 7 gusting 21 18.9
2016-May-25 14:05 304 6 gusting 29 18.9
2016-May-25 13:50 289 10 gusting 26 19.4
2016-May-25 13:37 015 1 gusting 15 19.4
2016-May-25 13:20 324 6 gusting 19 18.9
2016-May-25 13:05 015 6 gusting 21 18.9
2016-May-25 12:50 047 1 gusting 29 18.9
2016-May-25 12:35 325 5 gusting 16 19.4
2016-May-25 12:20 140 3 gusting 11 19.4
2016-May-25 12:07 114 1 gusting 12 18.9
2016-May-25 11:50 355 1 gusting 9 18.3
2016-May-25 11:35 084 0 gusting 12 18.3
2016-May-25 11:20 053 18.3
2016-May-25 11:05 019 0 gusting 11 17.8
2016-May-25 10:50 036 3 gusting 13 17.2
2016-May-25 10:35 047 4 gusting 19 17.8
2016-May-25 10:20 055 17.8
2016-May-25 10:05 076 17.2
2016-May-25 09:50 043 2 gusting 16 16.7
2016-May-25 09:34 015 16.7
2016-May-25 09:22 044 2 gusting 18 16.7
2016-May-25 09:04 053 16.1
2016-May-25 08:51 090 1 gusting 23 16.1
2016-May-25 08:34 013 5 gusting 16 15.6
2016-May-25 08:19 056 3 gusting 18 15.6
2016-May-25 08:04 081 4 gusting 14 16.1
2016-May-25 07:49 080 3 gusting 19 15.6
2016-May-25 07:35 059 3 gusting 19 15.0
2016-May-25 07:19
2016-May-25 07:04
2016-May-25 06:49
2016-May-25 06:34
2016-May-25 06:19
2016-May-25 06:04
2016-May-25 05:49
2016-May-25 05:34
2016-May-25 05:19
2016-May-25 05:04
2016-May-25 04:48
2016-May-25 04:33
2016-May-25 04:18
2016-May-25 04:03
2016-May-25 03:48
2016-May-25 03:33
2016-May-25 03:18
2016-May-25 03:03
2016-May-25 02:48
2016-May-25 02:33
2016-May-25 02:18
2016-May-25 02:03
2016-May-25 01:48
2016-May-25 01:32
2016-May-25 01:17
2016-May-25 01:04
2016-May-25 00:47
2016-May-25 00:32
2016-May-25 00:17
2016-May-25 00:02
2016-May-24 23:47
2016-May-24 23:34
2016-May-24 23:17
2016-May-24 23:02
2016-May-24 22:47
2016-May-24 22:32
2016-May-24 22:17
2016-May-24 22:01
2016-May-24 21:46
2016-May-24 21:31
2016-May-24 21:16
2016-May-24 21:01
2016-May-24 20:46
2016-May-24 20:31 345 21 gusting 38 9.4
2016-May-24 20:16 038 20 gusting 41 9.4
2016-May-24 20:01 019 21 gusting 40 10.0
2016-May-24 19:46 032 21 gusting 45 10.0
2016-May-24 19:31 014 20 gusting 44 10.0
2016-May-24 19:16 005 23 gusting 50 10.6
2016-May-24 19:01 338 21 gusting 46 10.6
2016-May-24 18:46 047 19 gusting 53 10.6
2016-May-24 18:31 360 19 gusting 44 11.1
2016-May-24 18:16 315 26 gusting 47 11.1
2016-May-24 18:01 340 21 gusting 43 11.7
2016-May-24 17:46 360 22 gusting 39 11.7
2016-May-24 17:31 345 26 gusting 48 11.7
2016-May-24 17:17 343 24 gusting 48 11.7
2016-May-24 17:01 031 28 gusting 61 11.7
2016-May-24 16:46 321 29 gusting 57 11.7
2016-May-24 16:31 323 32 gusting 53 11.7
2016-May-24 16:16 315 31 gusting 53 11.7
2016-May-24 16:01 005 32 gusting 66 11.7
2016-May-24 15:46 360 23 gusting 53 11.7
2016-May-24 15:31 346 27 gusting 49 11.7
2016-May-24 15:16 011 25 gusting 68 11.1
2016-May-24 15:01 334 31 gusting 54 11.1
2016-May-24 14:46 298 29 gusting 62 11.7
2016-May-24 14:31 344 28 gusting 66 11.7
2016-May-24 14:16 022 25 gusting 58 11.7
2016-May-24 14:01 360 32 gusting 58 11.7
2016-May-24 13:46 346 26 gusting 59 11.7
2016-May-24 13:31 317 30 gusting 55 11.7
2016-May-24 13:16 344 24 gusting 59 11.7
2016-May-24 13:01 355 31 gusting 58 11.7
2016-May-24 12:46 015 33 gusting 58 11.7
2016-May-24 12:31 350 29 gusting 48 12.2
2016-May-24 12:16 046 29 gusting 55 12.2
2016-May-24 12:00 013 23 gusting 59 11.7
2016-May-24 11:45 021 30 gusting 58 11.1
2016-May-24 11:30 277 30 gusting 62 11.1
2016-May-24 11:15 360 28 gusting 61 11.1
2016-May-24 11:00 360 33 gusting 52 11.1
2016-May-24 10:45 024 33 gusting 66 11.1
2016-May-24 10:30 292 32 gusting 51 11.1
2016-May-24 10:15 347 17 gusting 39 11.1
2016-May-24 10:00 319 23 gusting 46 11.1
2016-May-24 09:45 355 28 gusting 47 10.6
2016-May-24 09:30 349 19 gusting 49 10.6
2016-May-24 09:15 342 21 gusting 40 10.6
2016-May-24 09:00 005 19 gusting 51 10.0
2016-May-24 08:45 005 25 gusting 59 10.0
2016-May-24 08:30 005 25 gusting 56 10.0
2016-May-24 08:15 346 20 gusting 46 10.0
2016-May-24 08:00 319 28 gusting 54 9.4
2016-May-24 07:45 342 24 gusting 51 9.4
2016-May-24 07:30 005 18 gusting 61 9.4
2016-May-24 07:15
2016-May-24 07:00
2016-May-24 06:47
2016-May-24 06:30
2016-May-24 06:15
2016-May-24 06:00
2016-May-24 05:45
2016-May-24 05:29
2016-May-24 05:15
2016-May-24 04:59
2016-May-24 04:44
2016-May-24 04:29
2016-May-24 04:14
2016-May-24 04:00
2016-May-24 03:44
2016-May-24 03:29
2016-May-24 03:14
2016-May-24 02:59
2016-May-24 02:44
2016-May-24 02:29
2016-May-24 02:14